STARLINK-2252, 48595

Orbit data source: Space-Track

STARLINK-2252, 48595 is a payload satellite owned by SpaceX/Seattle (US) in LEO that was launched on Sat, 15 May 2021 UTC via an FALCON 9 launch vehicle from the Air Force Eastern Test Range (AFETR). Payload-class satellites include a variety of spacecraft equipped with specific instruments for various scientific and technological missions. These include communications satellites like Starlink; space stations such as the ISS; scientific satellites like the Hubble; Earth observation satellites from companies like Planet Labs, Umbra, and HawkEye 360; GPS; miniature CubeSats for education and research; and military/defense satellites.

Loading next visibility...
Identifier
48595, 2021-041AU
Orbit
LEO
Country
Flag of USUS
Related business
Manufacturer
SpaceX/Seattle
Mission
Operational Commercial Communications
Bus & Motor
STARLINK, Unknown motor
Mass
260 kg wet, ~248 kg dry
Launch date (UTC)
2021-05-15 (5 years ago)
Launch vehicle
FALCON 9
Launch site
Air Force Eastern Test Range (AFETR)
Object type
Payload
Rocket body
Debris
Shape & HBR
Box + 1 Pan, 10.1 m
Radar Cross Section
13.562 m², Large (>1 m²)

Expand to show TLE details & history
Last TLE update: 20 hours ago

TLE from 20 hours ago
0 STARLINK-2252
1 48595U 21041AU  25348.77584637  .00000633  00000-0  61429-4 0  9996
2 48595  53.0542 162.8120 0001326  82.4647 277.6493 15.06391754253532
Epoch: 2025-12-14T18:37Z
TLE epoch observation values (Epoch: 2025-12-14T18:37:13.126Z)
Latitude
0.00002°
Longitude
159.82341°
Altitude
547.994 km
Speed
7.589 km/s
True Right ascension
10h 51m 14s
True Declination
0° 00' 00"
Sunlit
Object was in daylight at epoch
Visualization orbit readout
Latitude
Unknown
Longitude
Unknown
Altitude
Unknown
Speed
Unknown
Apparent Right ascension
Unknown
Apparent Declination
Unknown
Sunlit
N/A
Visualization observer readout
Local Sidereal Time
13:18:51
Azimuth
Unknown
Elevation
Unknown
Doppler factor
Unknown
Orbital elements
Apogee altitude
548.426 km
Perigee altitude
546.589 km
Semi-major axis
6,925.645 km
Eccentricity
0.00013
Inclination
53.0542°
RAAN
162.812°
Arg. of periapsis
82.4647°
True anomaly
277.63424°
Mean anomaly
277.6493°
Eccentric anomaly
277.64177°
Mean motion
3.76576 °/min
Orbital period
95.6 mins
BSTAR
0.000061429
Loading maneuver chart data...
Computing Atmospheric mass density...
Loading historical data...
Loading historical data...
Loading historical data...
Loading historical data...
Loading historical data...
Loading historical data...
Loading historical data...

Documentation

Showing up to 5 results
|